Satellite-Ground Cal/Val Region Overpasses Predictions

Prediction of Satellite NPP Overpassing Cal/Val Region: PacNW

Region Location: (Latitude: 10.00, Longitude: 139.50) to (Latitude: 22.70, Longitude: 165.60).

Table of predicted overpasses for the next 14.0 days since TLE Epoch: 5/21/2021
Interval Starting Time Starting Location Ending Time Ending Location
1 05/22/2021 03:23:13 ( 10.04, 148.82) 05/22/2021 03:26:48 ( 22.66, 145.82)
2 05/22/2021 15:55:06 ( 22.70, 146.07) 05/22/2021 15:58:42 ( 10.02, 143.05)
3 05/23/2021 03:04:12 ( 10.02, 153.58) 05/23/2021 03:07:47 ( 22.64, 150.58)
4 05/23/2021 15:36:06 ( 22.66, 150.82) 05/23/2021 15:39:41 ( 10.04, 147.81)
5 05/24/2021 02:45:11 ( 10.06, 158.33) 05/24/2021 02:48:46 ( 22.68, 155.33)
6 05/24/2021 15:17:04 ( 22.68, 155.58) 05/24/2021 15:20:39 ( 10.06, 152.57)
7 05/25/2021 02:26:10 ( 10.04, 163.09) 05/25/2021 02:29:45 ( 22.66, 160.09)
8 05/25/2021 14:58:03 ( 22.70, 160.34) 05/25/2021 15:01:39 ( 10.02, 157.32)
9 05/26/2021 02:09:51 ( 19.59, 165.60) 05/26/2021 02:10:43 ( 22.64, 164.85)
10 05/26/2021 03:48:38 ( 10.02, 142.47) 05/26/2021 03:52:10 ( 22.47, 139.51)
11 05/26/2021 14:39:02 ( 22.66, 165.08) 05/26/2021 14:42:37 ( 10.04, 162.08)
12 05/26/2021 16:20:32 ( 22.65, 139.71) 05/26/2021 16:20:46 ( 21.83, 139.50)
13 05/27/2021 03:29:37 ( 10.01, 147.23) 05/27/2021 03:33:13 ( 22.69, 144.22)
14 05/27/2021 16:01:31 ( 22.67, 144.47) 05/27/2021 16:05:06 ( 10.05, 141.46)
15 05/28/2021 03:10:37 ( 10.05, 151.98) 05/28/2021 03:14:12 ( 22.67, 148.98)
16 05/28/2021 15:42:29 ( 22.69, 149.23) 05/28/2021 15:46:05 ( 10.01, 146.21)
17 05/29/2021 02:51:35 ( 10.03, 156.74) 05/29/2021 02:55:10 ( 22.65, 153.74)
18 05/29/2021 15:23:29 ( 22.65, 153.97) 05/29/2021 15:27:04 ( 10.03, 150.97)
19 05/30/2021 02:32:34 ( 10.01, 161.50) 05/30/2021 02:36:10 ( 22.69, 158.48)
20 05/30/2021 15:04:27 ( 22.67, 158.73) 05/30/2021 15:08:02 ( 10.05, 155.73)
21 05/31/2021 02:14:21 ( 12.88, 165.60) 05/31/2021 02:17:08 ( 22.68, 163.24)
22 05/31/2021 03:55:03 ( 10.06, 140.87) 05/31/2021 03:56:43 ( 15.93, 139.51)
23 05/31/2021 14:45:26 ( 22.68, 163.49) 05/31/2021 14:49:02 ( 10.01, 160.47)
24 06/01/2021 03:36:02 ( 10.04, 145.63) 06/01/2021 03:39:37 ( 22.67, 142.62)
25 06/01/2021 14:29:33 ( 11.61, 165.60) 06/01/2021 14:30:00 ( 10.02, 165.23)
26 06/01/2021 16:07:54 ( 22.70, 142.88) 06/01/2021 16:11:30 ( 10.02, 139.86)
27 06/02/2021 03:17:00 ( 10.03, 150.39) 06/02/2021 03:20:35 ( 22.65, 147.38)
28 06/02/2021 15:48:54 ( 22.66, 147.62) 06/02/2021 15:52:29 ( 10.04, 144.62)
29 06/03/2021 02:57:59 ( 10.01, 155.15) 06/03/2021 03:01:35 ( 22.69, 152.13)
30 06/03/2021 15:29:52 ( 22.67, 152.38) 06/03/2021 15:33:27 ( 10.05, 149.38)
31 06/04/2021 02:38:58 ( 10.06, 159.89) 06/04/2021 02:42:33 ( 22.68, 156.89)
